Overview Statistics Trail Chart Weather Telemetry Raw packets
 

This is the latest recevied weather packets stored in our database for station/object KB4JAC-13. If no packets are shown the sender has not sent any weather packets the latest 10 day(s).

<< 6 7 8 9 10 11 12 >>
Time Temp. Humidity Pressure Rain* Wind** Luminosity Snow
1788463344 38.89° C 44% 990.6 hPa 0 mm - - -
1788462743 37.78° C 48% 990.8 hPa 0 mm - - -
1788462142 38.33° C 45% 991 hPa 0 mm - - -
1788461542 37.78° C 46% 991.1 hPa 0 mm - - -
1788460941 38.33° C 44% 990.9 hPa 0 mm - - -
1788460340 38.89° C 44% 991.5 hPa 0 mm - - -
1788459739 38.33° C 46% 991.4 hPa 0 mm - - -
1788459138 38.33° C 46% 991.5 hPa 0 mm - - -
1788458537 38.33° C 47% 991.8 hPa 0 mm - - -
1788457936 37.78° C 46% 991.8 hPa 0 mm - - -
1788457335 37.22° C 48% 991.8 hPa 0 mm - - -
1788456734 37.22° C 48% 992.1 hPa 0 mm - - -
1788456134 36.67° C 51% 992.2 hPa 0 mm - - -
1788455533 36.11° C 52% 992.3 hPa 0 mm - - -
1788454941 37.22° C 50% 992.4 hPa 0 mm - - -
1788454331 35.56° C 54% 992.6 hPa 0 mm - - -
1788453730 36.11° C 55% 992.6 hPa 0 mm - - -
1788453130 35.56° C 57% 992.7 hPa 0 mm - - -
1788452529 35.56° C 58% 992.8 hPa 0 mm - - -
1788451928 35° C 61% 992.6 hPa 0 mm - - -
1788451327 33.89° C 62% 993 hPa 0 mm - - -
1788450726 34.44° C 63% 992.9 hPa 0 mm - - -
1788450125 33.89° C 64% 992.9 hPa 0 mm - - -
1788449525 32.78° C 65% 993.2 hPa 0 mm - - -
1788448924 33.33° C 66% 993.1 hPa 0 mm - - -

* Rain since midnight (hover to see other rain measurements)
** Current wind speed in m/s (hover to see current wind gust speed)